SCP
0 0 0 0 0 0 0 0 -0 -0 -0 0 0 0 0 0 0 0 0 0 0 0 0 0 0 0 0 0 0 0 0 0 0 0 0 0 0 0 0 0 0 0 0 0 0 0 0
0 0 0 0 0 0 -0 -0 -0 -0 -0 0 0 0 0 0 0 0 0 0 0 0 0 0 0 0 0 0 0 0 0 0 0 0 0 0 0 0 0 0 0 0 0 0 0 0 0
0 0 0 0 0 0 -0 -0 -0 -0 -0 0 0 0 0 0 0 0 0 0 0 0 0 0 0 0 0 0 0 0 0 0 0 0 0 0 0 0 0 0 0 0 0 0 0 0 0
0 0 0 0 0 -0 0 0 0 -0 -0 0 0 0 0 0 0 0 0 0 0 0 0 0 0 0 0 0 0 0 0 0 0 0 0 0 0 0 0 0 0 0 0 0 0 0 0
0 0 0 0 0 -0 0 -0 0 -0 -0 0 0 0 0 0 0 0 0 0 0 0 0 0 0 0 0 0 0 0 0 0 -0 -0 -0 -0 0 -0 -0 0 0 0 0 0 0 0 0
0 0 0 0 0 0 -0 -0 -0 -0 -0 -0 0 0 0 0 0 0 0 0 0 0 0 0 0 0 0 0 0 0 0 -0 -0 -0 -0 -0 -0 -0 0 0 -0 -0 -0 -0 -0 0 0
0 0 0 0 0 0 0 0 0 -0 0 0 0 0 0 0 0 0 0 0 0 0 0 0 0 0 0 0 -0 0 0 -0 -0 -0 0 0 -0 0 0 0 0 0 0 -0 0 0 -0
0 0 0 0 0 0 0 0 0 0 0 0 0 0 0 0 0 0 0 0 0 0 0 0 0 0 0 0 0 0 0 0 0 0 0 0 0 0 0 0 0 0 0 0 0 0 0
0 0 0 0 0 0 0 0 0 0 0 0 0 0 0 0 0 0 0 0 0 0 0 0 0 0 0 0 0 0 0 0 0 0 0 0 0 0 0 0 0 0 0 0 -0 0 0
0 0 0 0 0 0 0 0 0 0 0 0 0 0 0 0 0 0 0 0 0 0 0 0 0 0 0 0 0 0 0 0 0 0 0 0 0 0 0 0 0 0 0 0 -0 -0 -0
0 0 0 0 0 0 0 0 0 0 0 0 0 0 0 0 0 0 0 0 0 0 0 0 0 0 0 0 0 0 0 0 0 0 0 0 0 0 0 0 0 0 0 -0 -0 -0 -0
0 0 0 0 0 0 0 0 0 0 0 0 0 0 0 0 0 0 0 0 0 0 0 0 0 0 0 0 0 0 0 0 0 -0 0 0 0 0 0 0 0 0 0 -0 0 0 0
0 0 0 0 0 0 0 0 0 0 0 0 0 0 0 0 0 0 0 0 0 0 0 0 0 0 0 0 0 0 0 0 0 -0 0 0 0 0 0 0 0 0 0 0 0 0 0
0 0 0 0 0 0 0 0 0 0 0 0 0 0 0 0 0 0 0 0 0 0 0 0 0 0 0 0 0 0 0 0 0 0 0 0 0 0 0 0 0 0 0 0 0 0 -0
0 0 0 0 0 0 0 0 0 0 0 0 0 0 0 0 0 0 0 0 0 0 0 0 0 0 0 0 0 0 0 0 0 0 0 0 0 -0 0 0 0 0 0 0 0 0 0
0 0 0 0 0 0 0 0 0 0 0 0 0 0 0 0 0 0 0 0 0 0 0 0 0 0 0 0 0 0 0 0 0 0 0 0 0 0 0 0 0 0 0 0 0 0 0
0 0 0 0 0 0 0 0 0 0 0 0 0 0 0 0 0 0 0 0 0 0 0 0 0 0 0 0 0 0 0 0 0 0 0 0 0 0 0 0 0 0 0 0 0 0 0
0 0 0 0 0 0 0 0 0 0 0 0 0 0 0 0 0 0 0 0 0 0 0 0 0 0 0 0 0 0 0 0 0 0 0 0 0 0 0 0 0 0 0 0 0 0 0
0 0 0 0 0 0 0 0 0 0 0 0 0 0 0 0 0 0 0 0 0 0 0 0 0 0 0 0 0 0 0 0 0 0 0 0 0 0 0 0 0 0 -0 -0 0 0 0
0 0 0 0 0 0 0 0 0 0 0 0 0 0 0 0 0 0 0 0 0 0 0 0 0 0 0 0 0 0 0 0 0 0 0 0 0 0 0 0 0 0 -0 -0 0 0 0
0 0 0 0 0 0 0 0 0 0 0 0 0 0 0 0 0 0 0 0 0 0 0 0 0 0 0 0 0 0 0 0 0 0 -0 0 0 0 0 0 0 0 -0 0 0 0 0
0 0 0 0 0 0 0 0 0 0 0 0 0 0 0 0 0 0 0 0 0 0 0 0 0 0 0 0 0 0 -0 0 0 0 -0 0 0 0 0 0 0 0 -0 0 0 0 0
0 0 0 0 0 0 0 0 0 0 0 0 0 0 0 0 0 0 0 0 0 0 0 0 0 0 0 0 0 0 0 0 0 0 0 0 0 0 -0 -0 0 0 0 0 0 0 0
0 0 0 0 0 0 0 0 0 0 0 0 0 0 0 0 0 0 0 0 0 0 0 0 0 0 0 -0 -0 0 0 0 0 0 -0 0 -0 -0 0 0 0 0 0 0 0 0 0
0 0 0 0 0 0 0 0 0 0 0 0 0 0 0 0 0 0 0 0 0 0 0 0 0 0 0 0 0 0 0 0 0 0 -0 0 -0 0 0 0 0 0 -0 -0 0 0 0
0 0 0 0 0 0 0 0 0 0 0 0 0 0 0 0 0 0 0 0 0 0 0 0 0 0 0 0 0 0 0 0 0 0 0 0 -0 -0 0 0 -0 0 -0 -0 -0 0 -0
0 0 0 0 0 0 0 0 0 0 0 0 0 0 0 0 0 0 0 0 0 0 0 0 0 0 0 0 0 0 0 0 0 0 0 -0 -0 -0 -0 0 -0 -0 -0 -0 -0 0 -0
0 0 0 0 0 0 0 0 0 0 0 0 0 0 0 0 0 0 0 0 0 0 0 0 0 0 0 0 0 0 0 0 0 0 0 0 -0 -0 -0 -0 0 0 -0 -0 -0 -0 -0
0 0 0 0 0 0 0 0 0 0 0 0 0 0 0 0 0 0 0 0 0 0 0 0 0 0 0 0 0 0 0 0 0 0 0 0 -0 -0 -0 -0 -0 0 0 -0 -0 -0 -0
Wind_Speed_500mb
10 11 14 19 23 24 26 30 32 35 36 38 42 45 43 38 33 38 41 34 26 23 18 15 12 10 17 18 21 33 38 41 37 38 31 36 37 32 29 37 53 52 56 72 77 69 60
10 9 15 19 21 23 26 30 34 36 38 41 44 45 41 38 36 43 41 31 22 15 17 18 26 23 18 27 26 31 35 42 41 37 33 34 27 38 39 36 36 48 66 67 71 73 75
8 10 15 17 19 23 29 31 33 36 39 42 44 43 43 42 37 44 39 26 19 14 14 18 8 7 45 28 23 30 35 40 40 35 36 35 33 26 49 47 37 48 49 47 49 65 56
5 9 13 14 18 25 27 29 33 37 39 43 44 40 41 44 34 44 32 19 15 15 13 9 9 12 13 24 28 30 40 45 45 34 39 38 31 43 37 40 47 44 37 34 35 36 36
7 10 12 15 19 23 25 29 34 38 41 44 42 39 41 46 35 44 23 15 12 23 24 20 12 7 9 22 37 36 48 51 52 32 31 21 31 32 34 30 27 37 36 49 52 48 51
8 10 11 14 17 21 24 29 34 38 42 44 42 38 40 45 35 47 21 20 17 13 8 8 26 6 25 39 31 41 44 53 30 34 26 26 18 22 19 22 29 45 46 48 53 51 50
5 7 10 12 15 18 24 29 33 39 42 44 43 38 40 45 33 48 30 4 9 4 38 21 18 16 31 39 16 45 53 49 30 25 26 27 17 19 29 30 36 39 45 52 54 51 48
2 6 9 11 14 18 23 27 34 40 42 43 40 35 40 43 25 44 31 8 3 8 14 12 11 15 28 31 18 44 55 33 31 27 36 19 8 25 31 36 37 40 46 48 53 45 42
2 6 7 9 13 18 23 28 34 39 41 43 37 33 39 42 20 41 35 14 8 15 5 5 9 16 25 27 14 41 52 37 23 27 35 21 19 30 32 37 35 33 39 44 51 53 51
0 3 7 7 12 19 22 28 33 37 41 43 37 33 36 37 18 33 19 14 10 3 7 8 10 10 28 30 6 24 41 29 19 27 28 15 29 33 30 34 31 35 44 50 54 44 37
3 1 4 8 14 19 23 27 31 36 40 42 39 32 34 35 24 24 26 9 7 3 6 10 6 11 32 16 27 17 32 29 27 32 25 26 34 27 25 27 35 45 48 52 62 48 41
5 1 2 9 14 18 23 27 31 36 39 42 38 29 35 36 23 40 22 6 2 7 8 6 8 20 35 18 30 24 25 28 9 35 19 34 17 10 23 35 42 40 48 57 38 14 11
6 3 2 8 13 17 22 28 31 35 39 40 29 27 37 39 28 34 16 4 7 6 14 17 18 27 27 28 24 26 29 20 22 24 39 35 17 8 4 39 35 43 39 23 13 5 7
7 5 2 7 13 18 23 27 31 35 38 38 22 17 35 41 31 24 11 7 8 5 10 18 23 30 12 23 20 28 25 21 21 27 31 25 15 17 36 30 24 31 31 16 16 15 28
11 7 3 7 12 17 22 26 31 35 38 36 16 13 25 40 29 16 7 10 9 10 13 22 31 12 13 15 20 18 23 11 14 23 20 18 16 45 21 18 28 25 30 41 18 31 21
12 8 6 7 12 16 20 25 31 35 37 33 9 4 26 34 23 18 7 7 5 9 19 16 11 10 18 26 22 30 15 4 17 25 35 11 24 22 34 8 15 24 25 20 12 12 24
14 12 8 7 11 15 19 25 30 33 36 26 8 1 32 22 21 16 8 7 5 6 15 11 11 14 15 27 32 20 10 14 7 31 43 27 11 25 32 26 19 24 23 13 15 11 12
18 15 10 6 9 13 19 24 29 32 35 20 4 3 34 19 10 10 9 7 10 11 9 9 9 7 15 27 19 15 12 16 33 43 26 10 13 25 49 16 10 33 30 19 10 20 12
22 18 11 7 7 12 17 22 28 32 37 20 5 5 22 18 7 9 6 5 4 12 12 8 8 7 18 23 17 18 16 27 27 40 17 17 11 22 20 8 6 13 34 29 21 18 14
24 20 12 9 5 10 14 19 25 30 32 16 6 3 13 25 15 6 4 10 10 8 9 11 16 14 19 29 13 21 38 27 48 38 22 28 18 22 21 35 30 19 47 31 21 13 23
26 21 16 11 6 8 12 17 22 27 26 13 10 7 5 6 12 10 2 2 13 13 7 10 6 10 22 12 37 11 40 42 39 9 34 8 15 30 40 35 9 26 38 36 32 25 20
29 25 20 12 9 7 10 14 19 23 21 23 6 3 5 6 3 1 2 4 11 11 6 11 11 26 27 26 27 39 40 37 17 18 27 17 16 34 31 6 14 2 35 37 30 22 22
33 28 23 15 10 5 9 12 16 21 22 12 8 7 8 4 2 4 5 5 8 17 8 15 23 25 29 25 47 58 53 42 35 27 20 17 23 24 10 30 8 5 29 33 33 18 34
35 32 26 19 12 5 5 9 13 17 19 17 13 9 3 4 1 5 3 7 14 14 18 21 24 20 27 54 56 28 17 16 11 9 15 21 30 13 17 30 2 11 26 30 30 14 40
38 36 30 22 14 7 4 5 9 12 16 18 17 9 4 1 1 3 4 9 16 13 14 17 16 29 34 34 13 13 2 3 1 7 5 24 21 12 12 20 7 5 35 41 30 7 44
38 38 34 26 15 11 7 4 3 6 10 14 16 14 6 1 4 2 5 4 8 11 9 6 20 21 23 10 8 9 8 13 7 18 16 26 11 14 18 10 10 19 46 69 33 8 61
44 43 38 29 19 15 10 7 3 2 4 8 10 10 6 1 3 5 2 6 5 7 8 12 19 15 19 11 9 9 8 13 10 19 22 18 14 16 19 8 7 32 53 58 16 21 69
49 49 45 35 26 18 13 10 6 4 4 4 7 6 1 3 5 7 6 5 5 5 7 18 10 7 10 12 8 8 7 9 8 24 7 8 13 12 13 9 9 60 25 18 24 50 54
53 56 55 44 33 23 18 13 10 8 8 7 8 8 9 3 6 9 12 17 18 14 9 5 4 6 12 7 5 6 11 7 18 10 10 0 5 8 8 13 39 41 21 34 43 53 57
Wind_Direction_500mb
74 42 34 29 29 28 23 18 17 17 12 6 2 360 5 6 4 357 358 0 4 3 19 40 62 77 74 65 16 342 343 344 344 347 341 335 319 319 283 299 303 290 285 282 283 281 271
64 43 29 28 25 21 20 18 15 14 11 5 0 1 3 12 5 1 2 4 11 19 41 72 75 69 81 74 357 349 348 352 347 345 333 333 323 313 294 284 284 292 295 289 289 288 286
67 39 34 28 19 15 18 16 11 11 10 3 1 3 1 10 9 2 2 20 37 46 98 107 81 26 52 44 350 357 352 353 346 335 326 327 317 309 308 300 294 307 303 295 287 285 283
60 35 38 25 13 17 14 12 9 9 7 4 3 2 0 3 10 4 6 36 42 79 86 93 71 54 90 16 7 352 350 345 338 330 328 325 320 308 293 303 297 287 288 281 280 304 304
38 39 29 20 14 15 12 8 7 6 5 4 2 358 359 359 7 12 12 32 58 108 68 47 22 103 60 348 360 355 348 336 330 328 323 318 318 308 293 287 304 306 308 311 305 302 300
34 29 22 19 14 15 8 6 6 4 4 3 2 356 359 357 4 11 9 64 104 355 353 29 25 114 16 345 340 350 345 338 343 330 333 338 323 290 315 336 308 305 298 297 292 292 290
27 22 29 20 19 13 10 6 2 4 3 2 359 354 356 357 358 5 14 307 295 10 47 71 61 49 337 339 341 350 350 343 347 356 355 335 301 353 330 321 306 297 288 288 290 294 288
307 22 30 19 21 11 8 3 1 2 1 0 359 358 354 354 357 5 21 56 95 159 72 55 42 12 352 347 330 353 353 355 343 352 350 335 21 344 319 303 296 292 289 289 291 296 289
300 15 27 20 15 7 5 3 1 359 357 357 359 3 357 352 1 4 28 33 121 132 269 38 20 349 349 343 331 354 358 345 347 344 346 314 322 327 319 316 308 303 299 300 298 301 290
264 349 35 22 7 6 2 3 360 356 353 354 356 6 0 5 21 357 4 18 159 141 242 46 2 11 348 337 283 356 357 351 326 336 330 293 316 317 314 311 332 309 314 305 299 298 289
233 23 42 9 7 359 0 1 358 353 352 350 358 360 3 10 0 7 350 15 147 73 282 23 13 348 345 15 326 348 355 348 326 332 300 316 310 319 311 331 327 308 312 296 291 281 275
238 229 17 7 0 355 357 358 355 353 351 353 351 358 3 5 11 357 357 64 8 243 11 18 348 346 343 341 346 331 341 6 337 319 285 311 278 283 306 324 314 321 317 305 284 281 255
226 213 343 359 353 351 355 356 353 351 354 351 349 1 5 3 355 351 357 352 270 2 12 347 331 334 330 339 329 352 342 40 19 342 343 326 304 271 328 328 316 336 330 337 355 253 303
217 230 334 344 347 351 355 353 351 353 352 347 343 356 2 1 356 353 3 247 357 52 348 341 331 321 333 353 340 335 345 357 24 353 320 343 331 20 331 350 334 333 348 329 312 324 309
213 219 276 326 343 352 352 351 352 352 348 344 341 336 357 357 0 11 295 40 4 0 337 325 319 319 346 345 337 339 349 339 353 357 359 323 301 327 349 351 25 336 349 310 268 277 287
212 213 249 314 339 349 349 352 355 351 347 345 357 339 349 360 10 27 36 79 354 340 323 323 330 351 326 335 333 336 334 38 342 349 345 305 297 299 342 2 27 354 339 333 326 309 325
209 213 239 300 336 343 351 355 355 352 350 352 38 295 352 4 47 48 54 45 335 332 325 321 327 306 319 329 327 326 301 311 30 329 335 313 270 289 312 339 19 11 355 343 289 273 327
205 210 230 290 318 344 356 354 355 356 359 7 34 268 4 45 33 44 54 13 335 304 310 297 295 296 298 323 313 318 308 332 334 336 327 343 293 301 305 102 94 42 358 346 338 336 331
203 211 225 260 304 348 356 356 359 3 6 15 48 18 20 41 39 53 90 355 311 326 330 325 308 318 312 309 316 303 329 320 328 338 336 325 302 313 323 153 305 26 17 350 324 326 24
205 211 225 251 303 344 355 1 3 10 13 31 35 20 28 47 64 45 14 13 350 325 299 320 292 297 323 318 299 290 303 328 324 319 332 320 280 282 300 306 307 5 14 355 345 357 320
211 211 223 242 281 331 358 3 9 16 21 49 55 65 47 18 51 64 47 356 332 352 332 324 286 293 332 307 313 279 320 326 330 26 335 11 290 317 317 299 146 46 18 351 354 21 360
210 210 220 234 267 326 356 8 15 21 31 53 72 72 55 100 96 129 113 355 326 337 294 325 304 317 312 304 290 306 320 319 316 323 333 335 294 323 307 294 291 146 12 355 354 10 347
210 211 218 225 249 307 344 5 20 25 35 68 79 99 134 155 117 296 37 350 313 325 292 284 311 311 309 318 311 297 292 284 273 294 309 310 325 322 295 331 292 145 6 344 339 17 7
211 212 215 220 233 263 329 354 15 31 40 60 72 81 108 120 270 357 335 310 296 304 290 298 311 307 305 312 311 286 258 262 258 264 277 304 325 301 303 320 74 135 22 342 337 47 10
212 211 214 217 218 234 286 338 360 18 32 40 52 60 85 45 3 216 285 305 302 294 284 297 319 313 316 319 322 330 245 262 332 2 312 338 317 318 321 314 112 219 353 345 343 336 13
217 211 214 214 212 221 235 269 345 0 22 23 33 44 66 63 119 150 305 320 325 333 305 291 326 324 340 290 309 333 356 326 331 337 27 338 304 313 325 308 354 11 340 333 313 262 3
215 210 211 206 209 219 217 223 228 304 357 10 9 17 60 34 207 164 304 337 315 305 289 303 341 336 354 346 351 354 335 340 325 327 344 340 344 348 343 328 99 3 349 331 29 325 332
219 206 208 205 208 213 210 209 214 216 245 301 321 332 19 227 255 214 212 235 276 277 309 348 293 15 350 10 350 2 317 2 290 328 16 315 327 352 332 342 351 5 354 23 326 322 326
220 207 206 206 195 208 208 211 212 209 223 250 272 287 296 231 231 248 247 247 246 251 279 310 351 336 7 334 359 310 330 303 330 318 142 244 10 306 313 315 329 342 7 342 338 330 331
Wind_Speed_850mb
10 11 14 19 23 24 26 30 32 35 36 38 42 45 43 38 33 38 41 34 26 23 18 15 12 10 17 18 21 33 38 41 37 38 31 36 37 32 29 37 53 52 56 72 77 69 60
10 9 15 19 21 23 26 30 34 36 38 41 44 45 41 38 36 43 41 31 22 15 17 18 26 23 18 27 26 31 35 42 41 37 33 34 27 38 39 36 36 48 66 67 71 73 75
8 10 15 17 19 23 29 31 33 36 39 42 44 43 43 42 37 44 39 26 19 14 14 18 8 7 45 28 23 30 35 40 40 35 36 35 33 26 49 47 37 48 49 47 49 65 56
5 9 13 14 18 25 27 29 33 37 39 43 44 40 41 44 34 44 32 19 15 15 13 9 9 12 13 24 28 30 40 45 45 34 39 38 31 43 37 40 47 44 37 34 35 36 36
7 10 12 15 19 23 25 29 34 38 41 44 42 39 41 46 35 44 23 15 12 23 24 20 12 7 9 22 37 36 48 51 52 32 31 21 31 32 34 30 27 37 36 49 52 48 51
8 10 11 14 17 21 24 29 34 38 42 44 42 38 40 45 35 47 21 20 17 13 8 8 26 6 25 39 31 41 44 53 30 34 26 26 18 22 19 22 29 45 46 48 53 51 50
5 7 10 12 15 18 24 29 33 39 42 44 43 38 40 45 33 48 30 4 9 4 38 21 18 16 31 39 16 45 53 49 30 25 26 27 17 19 29 30 36 39 45 52 54 51 48
2 6 9 11 14 18 23 27 34 40 42 43 40 35 40 43 25 44 31 8 3 8 14 12 11 15 28 31 18 44 55 33 31 27 36 19 8 25 31 36 37 40 46 48 53 45 42
2 6 7 9 13 18 23 28 34 39 41 43 37 33 39 42 20 41 35 14 8 15 5 5 9 16 25 27 14 41 52 37 23 27 35 21 19 30 32 37 35 33 39 44 51 53 51
0 3 7 7 12 19 22 28 33 37 41 43 37 33 36 37 18 33 19 14 10 3 7 8 10 10 28 30 6 24 41 29 19 27 28 15 29 33 30 34 31 35 44 50 54 44 37
3 1 4 8 14 19 23 27 31 36 40 42 39 32 34 35 24 24 26 9 7 3 6 10 6 11 32 16 27 17 32 29 27 32 25 26 34 27 25 27 35 45 48 52 62 48 41
5 1 2 9 14 18 23 27 31 36 39 42 38 29 35 36 23 40 22 6 2 7 8 6 8 20 35 18 30 24 25 28 9 35 19 34 17 10 23 35 42 40 48 57 38 14 11
6 3 2 8 13 17 22 28 31 35 39 40 29 27 37 39 28 34 16 4 7 6 14 17 18 27 27 28 24 26 29 20 22 24 39 35 17 8 4 39 35 43 39 23 13 5 7
7 5 2 7 13 18 23 27 31 35 38 38 22 17 35 41 31 24 11 7 8 5 10 18 23 30 12 23 20 28 25 21 21 27 31 25 15 17 36 30 24 31 31 16 16 15 28
11 7 3 7 12 17 22 26 31 35 38 36 16 13 25 40 29 16 7 10 9 10 13 22 31 12 13 15 20 18 23 11 14 23 20 18 16 45 21 18 28 25 30 41 18 31 21
12 8 6 7 12 16 20 25 31 35 37 33 9 4 26 34 23 18 7 7 5 9 19 16 11 10 18 26 22 30 15 4 17 25 35 11 24 22 34 8 15 24 25 20 12 12 24
14 12 8 7 11 15 19 25 30 33 36 26 8 1 32 22 21 16 8 7 5 6 15 11 11 14 15 27 32 20 10 14 7 31 43 27 11 25 32 26 19 24 23 13 15 11 12
18 15 10 6 9 13 19 24 29 32 35 20 4 3 34 19 10 10 9 7 10 11 9 9 9 7 15 27 19 15 12 16 33 43 26 10 13 25 49 16 10 33 30 19 10 20 12
22 18 11 7 7 12 17 22 28 32 37 20 5 5 22 18 7 9 6 5 4 12 12 8 8 7 18 23 17 18 16 27 27 40 17 17 11 22 20 8 6 13 34 29 21 18 14
24 20 12 9 5 10 14 19 25 30 32 16 6 3 13 25 15 6 4 10 10 8 9 11 16 14 19 29 13 21 38 27 48 38 22 28 18 22 21 35 30 19 47 31 21 13 23
26 21 16 11 6 8 12 17 22 27 26 13 10 7 5 6 12 10 2 2 13 13 7 10 6 10 22 12 37 11 40 42 39 9 34 8 15 30 40 35 9 26 38 36 32 25 20
29 25 20 12 9 7 10 14 19 23 21 23 6 3 5 6 3 1 2 4 11 11 6 11 11 26 27 26 27 39 40 37 17 18 27 17 16 34 31 6 14 2 35 37 30 22 22
33 28 23 15 10 5 9 12 16 21 22 12 8 7 8 4 2 4 5 5 8 17 8 15 23 25 29 25 47 58 53 42 35 27 20 17 23 24 10 30 8 5 29 33 33 18 34
35 32 26 19 12 5 5 9 13 17 19 17 13 9 3 4 1 5 3 7 14 14 18 21 24 20 27 54 56 28 17 16 11 9 15 21 30 13 17 30 2 11 26 30 30 14 40
38 36 30 22 14 7 4 5 9 12 16 18 17 9 4 1 1 3 4 9 16 13 14 17 16 29 34 34 13 13 2 3 1 7 5 24 21 12 12 20 7 5 35 41 30 7 44
38 38 34 26 15 11 7 4 3 6 10 14 16 14 6 1 4 2 5 4 8 11 9 6 20 21 23 10 8 9 8 13 7 18 16 26 11 14 18 10 10 19 46 69 33 8 61
44 43 38 29 19 15 10 7 3 2 4 8 10 10 6 1 3 5 2 6 5 7 8 12 19 15 19 11 9 9 8 13 10 19 22 18 14 16 19 8 7 32 53 58 16 21 69
49 49 45 35 26 18 13 10 6 4 4 4 7 6 1 3 5 7 6 5 5 5 7 18 10 7 10 12 8 8 7 9 8 24 7 8 13 12 13 9 9 60 25 18 24 50 54
53 56 55 44 33 23 18 13 10 8 8 7 8 8 9 3 6 9 12 17 18 14 9 5 4 6 12 7 5 6 11 7 18 10 10 0 5 8 8 13 39 41 21 34 43 53 57
Wind_Direction_850mb
74 42 34 29 29 28 23 18 17 17 12 6 2 360 5 6 4 357 358 0 4 3 19 40 62 77 74 65 16 342 343 344 344 347 341 335 319 319 283 299 303 290 285 282 283 281 271
64 43 29 28 25 21 20 18 15 14 11 5 0 1 3 12 5 1 2 4 11 19 41 72 75 69 81 74 357 349 348 352 347 345 333 333 323 313 294 284 284 292 295 289 289 288 286
67 39 34 28 19 15 18 16 11 11 10 3 1 3 1 10 9 2 2 20 37 46 98 107 81 26 52 44 350 357 352 353 346 335 326 327 317 309 308 300 294 307 303 295 287 285 283
60 35 38 25 13 17 14 12 9 9 7 4 3 2 0 3 10 4 6 36 42 79 86 93 71 54 90 16 7 352 350 345 338 330 328 325 320 308 293 303 297 287 288 281 280 304 304
38 39 29 20 14 15 12 8 7 6 5 4 2 358 359 359 7 12 12 32 58 108 68 47 22 103 60 348 360 355 348 336 330 328 323 318 318 308 293 287 304 306 308 311 305 302 300
34 29 22 19 14 15 8 6 6 4 4 3 2 356 359 357 4 11 9 64 104 355 353 29 25 114 16 345 340 350 345 338 343 330 333 338 323 290 315 336 308 305 298 297 292 292 290
27 22 29 20 19 13 10 6 2 4 3 2 359 354 356 357 358 5 14 307 295 10 47 71 61 49 337 339 341 350 350 343 347 356 355 335 301 353 330 321 306 297 288 288 290 294 288
307 22 30 19 21 11 8 3 1 2 1 0 359 358 354 354 357 5 21 56 95 159 72 55 42 12 352 347 330 353 353 355 343 352 350 335 21 344 319 303 296 292 289 289 291 296 289
300 15 27 20 15 7 5 3 1 359 357 357 359 3 357 352 1 4 28 33 121 132 269 38 20 349 349 343 331 354 358 345 347 344 346 314 322 327 319 316 308 303 299 300 298 301 290
264 349 35 22 7 6 2 3 360 356 353 354 356 6 0 5 21 357 4 18 159 141 242 46 2 11 348 337 283 356 357 351 326 336 330 293 316 317 314 311 332 309 314 305 299 298 289
233 23 42 9 7 359 0 1 358 353 352 350 358 360 3 10 0 7 350 15 147 73 282 23 13 348 345 15 326 348 355 348 326 332 300 316 310 319 311 331 327 308 312 296 291 281 275
238 229 17 7 0 355 357 358 355 353 351 353 351 358 3 5 11 357 357 64 8 243 11 18 348 346 343 341 346 331 341 6 337 319 285 311 278 283 306 324 314 321 317 305 284 281 255
226 213 343 359 353 351 355 356 353 351 354 351 349 1 5 3 355 351 357 352 270 2 12 347 331 334 330 339 329 352 342 40 19 342 343 326 304 271 328 328 316 336 330 337 355 253 303
217 230 334 344 347 351 355 353 351 353 352 347 343 356 2 1 356 353 3 247 357 52 348 341 331 321 333 353 340 335 345 357 24 353 320 343 331 20 331 350 334 333 348 329 312 324 309
213 219 276 326 343 352 352 351 352 352 348 344 341 336 357 357 0 11 295 40 4 0 337 325 319 319 346 345 337 339 349 339 353 357 359 323 301 327 349 351 25 336 349 310 268 277 287
212 213 249 314 339 349 349 352 355 351 347 345 357 339 349 360 10 27 36 79 354 340 323 323 330 351 326 335 333 336 334 38 342 349 345 305 297 299 342 2 27 354 339 333 326 309 325
209 213 239 300 336 343 351 355 355 352 350 352 38 295 352 4 47 48 54 45 335 332 325 321 327 306 319 329 327 326 301 311 30 329 335 313 270 289 312 339 19 11 355 343 289 273 327
205 210 230 290 318 344 356 354 355 356 359 7 34 268 4 45 33 44 54 13 335 304 310 297 295 296 298 323 313 318 308 332 334 336 327 343 293 301 305 102 94 42 358 346 338 336 331
203 211 225 260 304 348 356 356 359 3 6 15 48 18 20 41 39 53 90 355 311 326 330 325 308 318 312 309 316 303 329 320 328 338 336 325 302 313 323 153 305 26 17 350 324 326 24
205 211 225 251 303 344 355 1 3 10 13 31 35 20 28 47 64 45 14 13 350 325 299 320 292 297 323 318 299 290 303 328 324 319 332 320 280 282 300 306 307 5 14 355 345 357 320
211 211 223 242 281 331 358 3 9 16 21 49 55 65 47 18 51 64 47 356 332 352 332 324 286 293 332 307 313 279 320 326 330 26 335 11 290 317 317 299 146 46 18 351 354 21 360
210 210 220 234 267 326 356 8 15 21 31 53 72 72 55 100 96 129 113 355 326 337 294 325 304 317 312 304 290 306 320 319 316 323 333 335 294 323 307 294 291 146 12 355 354 10 347
210 211 218 225 249 307 344 5 20 25 35 68 79 99 134 155 117 296 37 350 313 325 292 284 311 311 309 318 311 297 292 284 273 294 309 310 325 322 295 331 292 145 6 344 339 17 7
211 212 215 220 233 263 329 354 15 31 40 60 72 81 108 120 270 357 335 310 296 304 290 298 311 307 305 312 311 286 258 262 258 264 277 304 325 301 303 320 74 135 22 342 337 47 10
212 211 214 217 218 234 286 338 360 18 32 40 52 60 85 45 3 216 285 305 302 294 284 297 319 313 316 319 322 330 245 262 332 2 312 338 317 318 321 314 112 219 353 345 343 336 13
217 211 214 214 212 221 235 269 345 0 22 23 33 44 66 63 119 150 305 320 325 333 305 291 326 324 340 290 309 333 356 326 331 337 27 338 304 313 325 308 354 11 340 333 313 262 3
215 210 211 206 209 219 217 223 228 304 357 10 9 17 60 34 207 164 304 337 315 305 289 303 341 336 354 346 351 354 335 340 325 327 344 340 344 348 343 328 99 3 349 331 29 325 332
219 206 208 205 208 213 210 209 214 216 245 301 321 332 19 227 255 214 212 235 276 277 309 348 293 15 350 10 350 2 317 2 290 328 16 315 327 352 332 342 351 5 354 23 326 322 326
220 207 206 206 195 208 208 211 212 209 223 250 272 287 296 231 231 248 247 247 246 251 279 310 351 336 7 334 359 310 330 303 330 318 142 244 10 306 313 315 329 342 7 342 338 330 331